Regional Weather Roundup
Issued by NWS

Home | Current Version | Previous Version | Graphics & Text | Print | Product List | Glossary On
Versions: 1 2 3 4 5 6 7 8 9 10 11 12 13 14 15 16 17 18 19 20 21 22 23 24 25 26 27 28 29 30 31 32 33 34 35 36 37 38 39 40 41 42 43 44 45 46 47 48 49 50
520
ASUS43 KLOT 272303
RWRIL

ILLINOIS REGIONAL WEATHER ROUNDUP
NATIONAL WEATHER SERVICE CHICAGO/ROMEOVILLE IL
600 PM CDT TUE SEP 27 2016

NOTE: "FAIR" INDICATES FEW OR NO CLOUDS BELOW 12,000 FEET WITH NO
SIGNIFICANT WEATHER AND/OR OBSTRUCTIONS TO VISIBILITY.

* THESE STATIONS ARE NOT UNDER NWS QUALITY CONTROL. THEY ALSO MAY NOT
  REPORT WEATHER SUCH AS PRECIPITATION OR FOG.

ILZ001-002-007-009-015-016-024-280000-
NORTHWEST ILLINOIS

CITY           SKY/WX    TMP DP  RH WIND       PRES   REMARKS
MOLINE         CLEAR     72  38  29 W10       29.77S
STERLING*      PTCLDY    65  38  36 W7        29.76S
$$

ILZ003-004-008-010-011-017-018-280000-
NORTH CENTRAL ILLINOIS

CITY           SKY/WX    TMP DP  RH WIND       PRES   REMARKS
ROCKFORD       CLOUDY    65  37  35 W7        29.77R
FREEPORT*      PTCLDY    63  35  36 W8        29.77S
ROCHELLE*      MOCLDY    64  38  38 W6        29.77R
$$

ILZ005-006-012>014-019>023-280000-
NORTHEAST ILLINOIS

CITY           SKY/WX    TMP DP  RH WIND       PRES   REMARKS
CHICAGO-OHARE  CLOUDY    67  31  26 W16G25    29.75R
CHICAGO-MIDWAY MOCLDY    68  31  25 W8        29.76R
AURORA         MOCLDY    66  34  30 W9        29.77R
LANSING*       PTCLDY    66  37  34 W12G17    29.76S
WAUKEGAN       MOCLDY    63  44  50 N7        29.74R
DUPAGE AIRPORT PTCLDY    65  31  28 W13G22    29.76R
KANKAKEE*      CLEAR     71  31  22 W8        29.77S
WHEELING       PTCLDY    66  33  29 W9        29.76R
NORTHERLY ISL    N/A     68  32  26 W8          N/A
$$

LMZ740>746-280000-
SOUTHERN LAKE MICHIGAN

STATION/POSITION SKY/WX   TEMP    WIND        PRES    VSBY  WAVE
                          AIR SEA DIR/SP/G                  HT/PER
                          (F)     (DEG/KT/KT) (MB)    (MI)  (FT/S)
SOUTHERN BUOY              61 70  300/ 14/ 17 1006.3          3/ 5
WILMETTE HARBOR            64 60  290/  8/ 10   N/A           2/ 2
HARRISON CRIB              68     280/ 16/ 19   N/A
BURNHAM HARBOR             68     280/  8/ 16   N/A
CALUMET HARBOR             69     250/  7/ 17 1007.1R
BURNS HARBOR               68     280/ 16/ 21 1007.8R
MICHIGAN CITY              67     250/ 17/ 19   N/A
MICHIGAN CITY 6N           68 67  300/ 16/ 19   N/A           5/ 5
ST. JOSEPH                 67 66  280/ 16/ 19 1007.3R         6/ 6
$$

ILZ025>027-034>036-040-047-049-050-058-095>099-280000-
WEST-CENTRAL ILLINOIS

CITY           SKY/WX    TMP DP  RH WIND       PRES   REMARKS
QUINCY         CLEAR     74  42  31 W10       29.82S
GALESBURG*     CLEAR     71  36  27 W13G20    29.79S
MACOMB*        CLEAR     73  35  24 W13G22    29.82S
$$

ILZ028>032-037-038-041>044-048-051>054-059>061-280000-
CENTRAL ILLINOIS

CITY           SKY/WX    TMP DP  RH WIND       PRES   REMARKS
BLOOMINGTON    CLEAR     71  35  26 W10G20    29.80F
DECATUR        CLEAR     75  40  28 W10       29.81S
PEORIA         CLEAR     73  34  23 W8        29.79S
LINCOLN*       CLEAR     74  41  29 SW8       29.80S
SPRINGFIELD    CLEAR     76  40  27 W12       29.81S
TAYLORVILLE    NOT AVBL
$$

ILZ033-039-045-046-055>057-062-063-280000-
EAST-CENTRAL ILLINOIS

CITY           SKY/WX    TMP DP  RH WIND       PRES   REMARKS
CHAMPAIGN      CLEAR     73  36  25 W15       29.81S
MATTOON        LGT RAIN  74  42  31 W13G18    29.82S
$$

ILZ079-100>102-280000-
SOUTHWEST ILLINOIS

CITY           SKY/WX    TMP DP  RH WIND       PRES   REMARKS
BELLEVILLE     CLEAR     77  49  37 W13       29.84F
CAHOKIA*       CLEAR     78  47  33 SW8       29.85F
SPARTA*        CLEAR     74  51  43 SW7       29.88F
$$

ILZ064>066-069>071-074>076-080>082-084>086-088>090-092>094-280000-
SOUTH-CENTRAL ILLINOIS

CITY           SKY/WX    TMP DP  RH WIND       PRES   REMARKS
CARBONDALE     CLEAR     74  53  48 SW8       29.88F
MARION         CLEAR     75  52  43 SW9       29.89F
MT. VERNON     CLEAR     73  46  38 SW8       29.87F
CENTRALIA*     CLEAR     76  52  42 SW7       29.85S
SALEM*         CLEAR     76  47  35 SW10      29.85S
METROPOLIS*    CLEAR     76  50  40 CALM      29.91F
$$

ILZ067-068-072-073-078-083-087-091-280000-
SOUTHEAST ILLINOIS

CITY           SKY/WX    TMP DP  RH WIND       PRES   REMARKS
LAWRENCEVILLE  CLEAR     74  45  35 W12       29.85S
FLORA*         CLEAR     75  49  39 SW8       29.86S
HARRISBURG*    CLEAR     76  52  43 SW6       29.89S
ROBINSON*      CLEAR     72  46  38 W7        29.84F
$$

ABBREVIATIONS USED IN REMARKS
   TC - TEMPERATURE IN CELSIUS
  WCI - WIND CHILL INDEX
   HX - HEAT INDEX
  VSB - VISIBILITY
$$





USA.gov is the U.S. government's official web portal to all federal, state and local government web resources and services.